Location: Coupvray
(48.8929°N, 2.7967°E)
Time: 00:30:48
(UTC+00:00)

Spot 4 Rocket - Pass Details

Date: 14 July 2020
Orbit: 777 x 781 km, 98.7° (Epoch: 03 August)

Event Time Altitude Azimuth Distance (km) Brightness Sun altitude
Rises 03:02:13 0° 15° (NNE) 3,274 8.5 -8.1°
Reaches altitude 10° 03:04:33 10° 16° (NNE) 2,342 7.6 -7.8°
Maximum altitude 03:09:44 83° 105° (ESE) 792 4.1 -7.2°
Drops below altitude 10° 03:14:53 10° 194° (SSW) 2,328 6.0 -6.6°
Enters shadow 03:16:29 - 194° (SSW) 2,969 6.5 -6.4°
